Cumberland, WI

9:26 AM CST on January 24, 2017 (GMT -0600)
Cumberland Municipal

Weather History for KUBE - July, 2013

Change the Weather History Date:

Friday, July 26, 2013

  Actual Average (KRPD) Record (KRPD)
Temperature  
Mean Temperature 57 °F -  
Max Temperature 68 °F 78 °F 91 °F (2003)
Min Temperature 46 °F 57 °F 49 °F (2013)
Degree Days  
Heating Degree Days 8    
Growing Degree Days 7 (Base 50)    
Moisture  
Dew Point 53 °F    
Average Humidity 82    
Maximum Humidity 100    
Minimum Humidity 60    
Precipitation  
Precipitation 0.05 in - - ()
Sea Level Pressure  
Sea Level Pressure 29.96 in    
Wind  
Wind Speed 8 mph (NW)    
Max Wind Speed 20 mph    
Max Gust Speed 28 mph    
Visibility 10 miles    
Events Rain , Thunderstorm    
Averages and records for this station are not official NWS values.
T = Trace of Precipitation, MM = Missing Value Source: NWS Daily Summary

Daily Weather History Graph

Daily Weather History Graph

Search for Another Location

Airport or City:

Trip Planner

Search our weather history database for the weather conditions in past years. The results will help you decide how hot, cold, wet, or windy it might be!

Date:

Astronomy

Jul. 26, 2013 Rise Set
Actual Time 5:45 AM CDT 8:42 PM CDT
Civil Twilight 5:10 AM CDT 9:17 PM CDT
Nautical Twilight 4:25 AM CDT 10:02 PM CDT
Astronomical Twilight 3:32 AM CDT 10:55 PM CDT
Moon 10:38 PM CDT (7/26) 10:39 AM CDT (7/26)
Length of Visible Light 16h 07m
Length of Day
14h 57m
Waning Gibbous, 80% of the Moon is Illuminated
Jul 26
Waning Gibbous
Jul 29
Last Quarter
Aug 6
New
Aug 14
First Quarter
Aug 20
Full

Hourly Weather History & Observations

Time (CDT) Temp. Windchill Dew Point Humidity Pressure Visibility Wind Dir Wind Speed Gust Speed Precip Events Conditions
12:15 AM 62.6 °F - 60.8 °F 94% 29.93 in 10.0 mi WSW 5.8 mph - N/A   Overcast
12:35 AM 62.6 °F - 60.8 °F 94% 29.94 in 10.0 mi SW 8.1 mph - 0.01 in Rain Light Rain
12:55 AM 62.6 °F - 59.0 °F 88% 29.93 in 10.0 mi SSW 6.9 mph - 0.01 in Rain Light Rain
1:15 AM 60.8 °F - 57.2 °F 88% 29.92 in 10.0 mi SSW 10.4 mph - N/A   Overcast
1:35 AM 60.8 °F - 57.2 °F 88% 29.91 in 10.0 mi South 6.9 mph - N/A   Overcast
1:55 AM 60.8 °F - 57.2 °F 88% 29.91 in 10.0 mi WSW 4.6 mph - N/A   Overcast
2:15 AM 60.8 °F - 57.2 °F 88% 29.91 in 10.0 mi SW 5.8 mph - N/A Thunderstorm Overcast
2:35 AM 60.8 °F - 57.2 °F 88% 29.90 in 10.0 mi WSW 3.5 mph - N/A   Overcast
2:55 AM 59.0 °F - 55.4 °F 88% 29.90 in 10.0 mi SSW 3.5 mph - N/A   Overcast
3:15 AM 59.0 °F - 55.4 °F 88% 29.90 in 10.0 mi Calm Calm - N/A   Overcast
3:35 AM 57.2 °F - 55.4 °F 94% 29.90 in 10.0 mi SW 3.5 mph - N/A   Mostly Cloudy
3:55 AM 55.4 °F - 55.4 °F 100% 29.90 in 10.0 mi SSW 4.6 mph - N/A   Mostly Cloudy
4:15 AM 55.4 °F - 53.6 °F 94% 29.89 in 10.0 mi Calm Calm - N/A   Scattered Clouds
4:35 AM 55.4 °F - 53.6 °F 94% 29.89 in 10.0 mi Calm Calm - N/A   Clear
4:55 AM 55.4 °F - 53.6 °F 94% 29.89 in 10.0 mi Calm Calm - N/A   Clear
5:15 AM 55.4 °F - 53.6 °F 94% 29.89 in 10.0 mi West 5.8 mph - N/A   Mostly Cloudy
5:35 AM 57.2 °F - 55.4 °F 94% 29.89 in 10.0 mi West 5.8 mph - N/A   Mostly Cloudy
5:55 AM 57.2 °F - 55.4 °F 94% 29.89 in 10.0 mi West 6.9 mph - N/A   Clear
6:15 AM 57.2 °F - 55.4 °F 94% 29.90 in 10.0 mi WNW 6.9 mph - N/A   Clear
6:35 AM 59.0 °F - 55.4 °F 88% 29.90 in 10.0 mi WNW 5.8 mph - N/A   Mostly Cloudy
6:55 AM 59.0 °F - 57.2 °F 94% 29.90 in 10.0 mi WNW 4.6 mph - N/A   Mostly Cloudy
7:15 AM 60.8 °F - 55.4 °F 82% 29.91 in 10.0 mi NNW 12.7 mph - N/A   Scattered Clouds
7:35 AM 60.8 °F - 55.4 °F 82% 29.91 in 10.0 mi NW 9.2 mph - N/A   Scattered Clouds
7:55 AM 60.8 °F - 55.4 °F 82% 29.92 in 10.0 mi NW 11.5 mph - N/A   Scattered Clouds
8:15 AM 60.8 °F - 53.6 °F 77% 29.92 in 10.0 mi NW 11.5 mph - N/A   Scattered Clouds
8:35 AM 60.8 °F - 55.4 °F 82% 29.92 in 10.0 mi WNW 11.5 mph - N/A   Mostly Cloudy
8:55 AM 62.6 °F - 53.6 °F 72% 29.92 in 10.0 mi NW 9.2 mph - N/A   Mostly Cloudy
9:15 AM 62.6 °F - 53.6 °F 72% 29.92 in 10.0 mi WNW 8.1 mph - N/A   Scattered Clouds
9:35 AM 62.6 °F - 53.6 °F 72% 29.92 in 10.0 mi WNW 8.1 mph - N/A   Scattered Clouds
9:55 AM 64.4 °F - 53.6 °F 68% 29.92 in 10.0 mi NW 10.4 mph - N/A   Scattered Clouds
10:15 AM 62.6 °F - 51.8 °F 68% 29.92 in 10.0 mi WNW 8.1 mph - N/A   Mostly Cloudy
10:35 AM 64.4 °F - 51.8 °F 64% 29.92 in 10.0 mi NW 8.1 mph 16.1 mph N/A   Overcast
10:55 AM 64.4 °F - 51.8 °F 64% 29.92 in 10.0 mi WNW 8.1 mph - N/A   Mostly Cloudy
11:15 AM 66.2 °F - 53.6 °F 64% 29.92 in 10.0 mi West 9.2 mph - N/A   Mostly Cloudy
11:35 AM 64.4 °F - 51.8 °F 64% 29.92 in 10.0 mi West 9.2 mph - N/A   Mostly Cloudy
11:55 AM 68.0 °F - 53.6 °F 60% 29.92 in 10.0 mi West 10.4 mph - N/A   Scattered Clouds
12:15 PM 62.6 °F - 53.6 °F 72% 29.93 in 10.0 mi West 11.5 mph 19.6 mph N/A   Overcast
12:35 PM 64.4 °F - 53.6 °F 68% 29.93 in 10.0 mi WNW 13.8 mph 19.6 mph N/A   Mostly Cloudy
12:55 PM 60.8 °F - 55.4 °F 82% 29.93 in 7.0 mi West 10.4 mph - N/A Rain Light Rain
1:15 PM 64.4 °F - 55.4 °F 73% 29.93 in 10.0 mi West 13.8 mph 17.3 mph 0.01 in   Overcast
1:35 PM 64.4 °F - 55.4 °F 73% 29.93 in 10.0 mi WNW 13.8 mph 21.9 mph 0.01 in   Mostly Cloudy
1:55 PM 62.6 °F - 55.4 °F 77% 29.93 in 7.0 mi NW 11.5 mph - 0.01 in Rain Light Rain
2:15 PM 64.4 °F - 53.6 °F 68% 29.94 in 10.0 mi NNW 16.1 mph - N/A   Mostly Cloudy
2:35 PM 62.6 °F - 53.6 °F 72% 29.95 in 10.0 mi NW 12.7 mph 21.9 mph N/A   Mostly Cloudy
2:55 PM 62.6 °F - 55.4 °F 77% 29.95 in 10.0 mi NW 10.4 mph - N/A   Overcast
3:15 PM 62.6 °F - 53.6 °F 72% 29.94 in 10.0 mi NNW 17.3 mph 24.2 mph N/A   Overcast
3:35 PM 62.6 °F - 53.6 °F 72% 29.95 in 10.0 mi North 16.1 mph 24.2 mph N/A   Overcast
3:55 PM 62.6 °F - 51.8 °F 68% 29.96 in 10.0 mi North 19.6 mph 24.2 mph N/A   Mostly Cloudy
4:15 PM 62.6 °F - 51.8 °F 68% 29.96 in 10.0 mi North 16.1 mph 21.9 mph N/A   Overcast
4:35 PM 60.8 °F - 51.8 °F 72% 29.97 in 10.0 mi North 12.7 mph 19.6 mph N/A   Overcast
4:55 PM 59.0 °F - 51.8 °F 77% 29.98 in 10.0 mi North 13.8 mph - N/A   Overcast
5:15 PM 59.0 °F - 51.8 °F 77% 30.00 in 7.0 mi North 18.4 mph 27.6 mph N/A Rain Rain
5:35 PM 55.4 °F - 53.6 °F 94% 30.01 in 5.0 mi NNW 9.2 mph - N/A Rain Light Rain
5:55 PM 55.4 °F - 51.8 °F 88% 30.03 in 5.0 mi North 10.4 mph 20.7 mph 0.02 in Rain Rain
6:15 PM 53.6 °F - 51.8 °F 94% 30.03 in 5.0 mi NNW 13.8 mph 18.4 mph N/A   Overcast
6:35 PM 55.4 °F - 51.8 °F 88% 30.03 in 10.0 mi North 13.8 mph 19.6 mph N/A   Overcast
6:55 PM 53.6 °F - 50.0 °F 88% 30.04 in 10.0 mi North 15.0 mph 26.5 mph N/A   Overcast
7:15 PM 53.6 °F - 48.2 °F 82% 30.05 in 10.0 mi North 16.1 mph 21.9 mph N/A   Overcast
7:35 PM 53.6 °F - 48.2 °F 82% 30.05 in 10.0 mi North 13.8 mph 21.9 mph N/A   Mostly Cloudy
7:55 PM 53.6 °F - 48.2 °F 82% 30.05 in 10.0 mi North 10.4 mph - N/A   Overcast
8:15 PM 53.6 °F - 48.2 °F 82% 30.05 in 10.0 mi NNW 15.0 mph 20.7 mph N/A   Overcast
8:35 PM 51.8 °F - 46.4 °F 82% 30.05 in 10.0 mi NNW 12.7 mph - N/A   Overcast
8:55 PM 51.8 °F - 48.2 °F 88% 30.05 in 7.0 mi NNW 12.7 mph 18.4 mph N/A   Overcast
9:15 PM 50.0 °F - 48.2 °F 94% 30.05 in 7.0 mi North 11.5 mph - 0.01 in   Overcast
9:35 PM 50.0 °F - 48.2 °F 94% 30.06 in 10.0 mi North 9.2 mph - 0.01 in   Overcast
9:55 PM 50.0 °F - 46.4 °F 87% 30.06 in 10.0 mi North 11.5 mph 16.1 mph 0.01 in   Overcast
10:15 PM 50.0 °F - 46.4 °F 87% 30.06 in 10.0 mi North 9.2 mph - N/A   Overcast
10:35 PM 50.0 °F - 46.4 °F 87% 30.06 in 7.0 mi North 8.1 mph - N/A   Overcast
10:55 PM 48.2 °F - 46.4 °F 93% 30.06 in 7.0 mi North 10.4 mph - N/A   Light Drizzle
11:15 PM 48.2 °F - 44.6 °F 87% 30.06 in 10.0 mi North 11.5 mph - N/A   Overcast
11:35 PM 46.4 °F 41.9 °F 44.6 °F 93% 30.06 in 10.0 mi North 9.2 mph 16.1 mph N/A   Overcast
11:55 PM 46.4 °F 41.9 °F 44.6 °F 93% 30.07 in 10.0 mi North 9.2 mph - N/A   Overcast